When you browse on this site, cookies collect data to enhance your experience and personalize the content and advertising you see.
Visit our Privacy Policy to learn more. By continuing to use the site, you agree to this use of cookies and data.
  • In Österreich
  • Länderverzeichnis
  • Für 7 Tage
  • Wassertemperatur
  • Satellitenkarten
  • Wetterkarte
  • News
  • Widgets
  • user-avatar
    Anmelden

    Stündliche Wetter Corsicana

    Heute, 25 Juni, Dienstag

    Zeit Temperatur Niederschläge Wind Luftdruck Luftfeuchtigkeit
    00:00 +26°C° 0.1 mm 2 m/S 748 mmHg 87%
    01:00 +25°C° 0 mm 2 m/S 748 mmHg 89%
    02:00 +25°C° 0 mm 2 m/S 748 mmHg 90%
    03:00 +25°C° 0 mm 2 m/S 748 mmHg 92%
    04:00 +25°C° 0 mm 3 m/S 748 mmHg 92%
    05:00 +25°C° 0 mm 3 m/S 749 mmHg 93%
    06:00 +25°C° 0 mm 3 m/S 749 mmHg 94%
    07:00 +27°C° 0 mm 3 m/S 750 mmHg 90%
    08:00 +28°C° 0 mm 4 m/S 750 mmHg 86%
    09:00 +30°C° 0 mm 4 m/S 750 mmHg 82%
    10:00 +32°C° 0.3 mm 4 m/S 750 mmHg 77%
    11:00 +33°C° 0.3 mm 4 m/S 750 mmHg 73%
    12:00 +34°C° 0.3 mm 4 m/S 751 mmHg 68%
    13:00 +34°C° 0.9 mm 4 m/S 750 mmHg 67%
    14:00 +34°C° 0.9 mm 4 m/S 750 mmHg 66%
    15:00 +34°C° 0.9 mm 4 m/S 749 mmHg 65%
    16:00 +34°C° 0.9 mm 4 m/S 749 mmHg 68%
    17:00 +34°C° 0.9 mm 3 m/S 749 mmHg 71%
    18:00 +33°C° 0.9 mm 3 m/S 749 mmHg 74%
    19:00 +31°C° 0.1 mm 3 m/S 750 mmHg 77%
    20:00 +29°C° 0.1 mm 3 m/S 750 mmHg 80%
    21:00 +28°C° 0.1 mm 4 m/S 750 mmHg 82%
    22:00 +27°C° 0.1 mm 3 m/S 750 mmHg 85%
    23:00 +26°C° 0.1 mm 3 m/S 751 mmHg 87%

    Morgen, 26 Juni, Mittwoch

    Zeit Temperatur Niederschläge Wind Luftdruck Luftfeuchtigkeit
    00:00 +26°C° 0.1 mm 3 m/S 751 mmHg 90%
    01:00 +26°C° 0 mm 3 m/S 751 mmHg 92%
    02:00 +26°C° 0 mm 3 m/S 751 mmHg 94%
    03:00 +26°C° 0 mm 4 m/S 751 mmHg 96%
    04:00 +26°C° 0 mm 3 m/S 751 mmHg 96%
    05:00 +26°C° 0 mm 3 m/S 751 mmHg 97%
    06:00 +26°C° 0 mm 3 m/S 751 mmHg 97%
    07:00 +27°C° 0 mm 3 m/S 752 mmHg 93%
    08:00 +28°C° 0 mm 4 m/S 752 mmHg 89%
    09:00 +29°C° 0 mm 4 m/S 752 mmHg 85%
    10:00 +32°C° 0 mm 4 m/S 753 mmHg 79%
    11:00 +33°C° 0 mm 4 m/S 753 mmHg 72%
    12:00 +34°C° 0 mm 5 m/S 753 mmHg 65%
    13:00 +35°C° 0 mm 5 m/S 752 mmHg 62%
    14:00 +35°C° 0 mm 5 m/S 752 mmHg 59%
    15:00 +36°C° 0 mm 5 m/S 751 mmHg 56%
    16:00 +36°C° 0 mm 4 m/S 751 mmHg 59%
    17:00 +35°C° 0 mm 3 m/S 751 mmHg 61%
    18:00 +35°C° 0 mm 2 m/S 751 mmHg 63%
    19:00 +32°C° 0.1 mm 2 m/S 751 mmHg 66%
    20:00 +30°C° 0.1 mm 3 m/S 752 mmHg 69%
    21:00 +28°C° 0.1 mm 3 m/S 752 mmHg 73%
    22:00 +28°C° 0 mm 3 m/S 752 mmHg 76%
    23:00 +27°C° 0 mm 3 m/S 752 mmHg 79%

    übermorgen, 27 Juni, Donnerstag

    Zeit Temperatur Niederschläge Wind Luftdruck Luftfeuchtigkeit
    00:00 +26°C° 0 mm 3 m/S 753 mmHg 82%
    01:00 +26°C° 0 mm 3 m/S 752 mmHg 85%
    02:00 +25°C° 0 mm 3 m/S 752 mmHg 88%
    03:00 +25°C° 0 mm 4 m/S 752 mmHg 91%
    04:00 +25°C° 0 mm 3 m/S 752 mmHg 93%
    05:00 +24°C° 0 mm 3 m/S 753 mmHg 95%
    06:00 +24°C° 0 mm 3 m/S 753 mmHg 97%
    07:00 +26°C° 0 mm 3 m/S 753 mmHg 90%
    08:00 +27°C° 0 mm 3 m/S 754 mmHg 84%
    09:00 +29°C° 0 mm 3 m/S 754 mmHg 78%
    10:00 +30°C° 0 mm 4 m/S 754 mmHg 72%
    11:00 +33°C° 0 mm 4 m/S 754 mmHg 66%
    12:00 +34°C° 0 mm 4 m/S 754 mmHg 60%
    13:00 +35°C° 0 mm 4 m/S 754 mmHg 57%
    14:00 +35°C° 0 mm 3 m/S 753 mmHg 54%
    15:00 +36°C° 0 mm 3 m/S 752 mmHg 51%
    16:00 +35°C° 0 mm 3 m/S 752 mmHg 54%
    17:00 +35°C° 0 mm 3 m/S 752 mmHg 57%
    18:00 +34°C° 0 mm 3 m/S 752 mmHg 61%
    19:00 +33°C° 0 mm 3 m/S 752 mmHg 64%
    20:00 +30°C° 0 mm 3 m/S 752 mmHg 67%
    21:00 +28°C° 0 mm 3 m/S 752 mmHg 70%
    22:00 +28°C° 0 mm 3 m/S 752 mmHg 70%
    23:00 +27°C° 0 mm 3 m/S 752 mmHg 70%

    28 Juni, Freitag

    Zeit Temperatur Niederschläge Wind Luftdruck Luftfeuchtigkeit
    00:00 +27°C° 0 mm 3 m/S 752 mmHg 70%
    01:00 +26°C° 0 mm 3 m/S 752 mmHg 71%
    02:00 +26°C° 0 mm 3 m/S 752 mmHg 72%
    03:00 +25°C° 0 mm 3 m/S 752 mmHg 74%
    04:00 +25°C° 0 mm 3 m/S 752 mmHg 76%
    05:00 +24°C° 0 mm 3 m/S 753 mmHg 78%
    06:00 +24°C° 0 mm 2 m/S 753 mmHg 80%
    07:00 +26°C° 0 mm 2 m/S 753 mmHg 74%
    08:00 +28°C° 0 mm 2 m/S 753 mmHg 68%
    09:00 +30°C° 0 mm 2 m/S 754 mmHg 62%
    10:00 +31°C° 0 mm 2 m/S 754 mmHg 56%
    11:00 +34°C° 0 mm 2 m/S 754 mmHg 50%
    12:00 +35°C° 0 mm 2 m/S 753 mmHg 44%
    13:00 +36°C° 0 mm 2 m/S 753 mmHg 42%
    14:00 +36°C° 0 mm 2 m/S 752 mmHg 40%
    15:00 +36°C° 0 mm 1 m/S 752 mmHg 38%
    16:00 +36°C° 0 mm 1 m/S 752 mmHg 42%
    17:00 +36°C° 0 mm 1 m/S 751 mmHg 46%
    18:00 +35°C° 0 mm 1 m/S 751 mmHg 50%
    19:00 +33°C° 0 mm 1 m/S 751 mmHg 55%
    20:00 +31°C° 0 mm 2 m/S 752 mmHg 59%
    21:00 +28°C° 0 mm 3 m/S 752 mmHg 64%
    22:00 +27°C° 0 mm 3 m/S 752 mmHg 70%
    23:00 +26°C° 0 mm 4 m/S 752 mmHg 75%

    29 Juni, Samstag

    Zeit Temperatur Niederschläge Wind Luftdruck Luftfeuchtigkeit
    00:00 +25°C° 0 mm 4 m/S 752 mmHg 80%
    01:00 +24°C° 0 mm 3 m/S 752 mmHg 80%
    02:00 +24°C° 0 mm 2 m/S 752 mmHg 80%
    03:00 +23°C° 0 mm 2 m/S 752 mmHg 80%
    04:00 +23°C° 0 mm 1 m/S 752 mmHg 80%
    05:00 +24°C° 0 mm 1 m/S 752 mmHg 81%
    06:00 +22°C° 0 mm 0 m/S 752 mmHg 81%
    07:00 +25°C° 0 mm 1 m/S 753 mmHg 76%
    08:00 +27°C° 0 mm 1 m/S 753 mmHg 71%
    09:00 +28°C° 0 mm 2 m/S 753 mmHg 66%
    10:00 +30°C° 0 mm 2 m/S 753 mmHg 62%
    11:00 +31°C° 0 mm 2 m/S 753 mmHg 58%
    12:00 +32°C° 0 mm 2 m/S 753 mmHg 54%
    13:00 +34°C° 0 mm 2 m/S 752 mmHg 53%
    14:00 +34°C° 0 mm 2 m/S 752 mmHg 52%
    15:00 +35°C° 0 mm 2 m/S 751 mmHg 51%
    16:00 +34°C° 0 mm 2 m/S 751 mmHg 55%
    17:00 +34°C° 0 mm 2 m/S 750 mmHg 58%
    18:00 +32°C° 0 mm 2 m/S 750 mmHg 62%
    19:00 +31°C° 0 mm 2 m/S 750 mmHg 66%
    20:00 +29°C° 0 mm 2 m/S 751 mmHg 70%
    21:00 +27°C° 0 mm 2 m/S 751 mmHg 73%
    22:00 +27°C° 0 mm 2 m/S 751 mmHg 76%
    23:00 +26°C° 0 mm 2 m/S 751 mmHg 78%

    30 Juni, Sonntag

    Zeit Temperatur Niederschläge Wind Luftdruck Luftfeuchtigkeit
    00:00 +25°C° 0 mm 2 m/S 751 mmHg 80%
    01:00 +25°C° 0 mm 3 m/S 751 mmHg 81%
    02:00 +25°C° 0 mm 3 m/S 751 mmHg 82%
    03:00 +24°C° 0 mm 3 m/S 751 mmHg 83%
    04:00 +24°C° 0 mm 3 m/S 751 mmHg 84%
    05:00 +24°C° 0 mm 2 m/S 751 mmHg 86%
    06:00 +24°C° 0 mm 2 m/S 751 mmHg 88%
    07:00 +26°C° 0 mm 2 m/S 751 mmHg 82%
    08:00 +27°C° 0 mm 2 m/S 752 mmHg 76%
    09:00 +29°C° 0 mm 2 m/S 752 mmHg 69%
    10:00 +30°C° 0 mm 2 m/S 752 mmHg 64%
    11:00 +31°C° 0 mm 3 m/S 752 mmHg 59%
    12:00 +33°C° 0 mm 3 m/S 751 mmHg 54%
    13:00 +34°C° 0 mm 3 m/S 751 mmHg 53%
    14:00 +34°C° 0 mm 3 m/S 750 mmHg 51%
    15:00 +35°C° 0 mm 3 m/S 750 mmHg 50%
    16:00 +34°C° 0 mm 3 m/S 749 mmHg 55%
    17:00 +33°C° 0 mm 3 m/S 749 mmHg 60%
    18:00 +33°C° 0 mm 3 m/S 749 mmHg 65%
    19:00 +30°C° 0.1 mm 3 m/S 749 mmHg 68%
    20:00 +29°C° 0.1 mm 3 m/S 750 mmHg 71%
    21:00 +27°C° 0.1 mm 2 m/S 750 mmHg 74%
    22:00 +27°C° 0 mm 2 m/S 750 mmHg 76%
    23:00 +26°C° 0 mm 3 m/S 750 mmHg 78%
    Mehr zeigen